GW1200 Weather Reports


Display with metric or nautical units.
time (UTC)temp
F
wind
direction
speed
MPH
gust
MPH
rain 1hr
in
rain 24hr
in
rain mn
in
humidity
%
barometer
mb
20260504210108 81 331 3.0 5.0 0.00 0.00 0.00 45 4248.1
20260504205103 81 249 2.0 3.0 0.00 0.00 0.00 42 4248.0
20260504204100 82 257 3.0 5.0 0.00 0.00 0.00 41 4248.2
20260504203055 82 255 3.0 3.0 0.00 0.00 0.00 43 4248.4
20260504202054 80 313 2.0 2.0 0.00 0.00 0.00 46 4248.6
20260504201048 81 281 2.0 3.0 0.00 0.00 0.00 46 4248.6
20260504200047 82 242 5.0 7.0 0.00 0.00 0.00 45 4248.8
20260504195046 81 295 2.0 2.0 0.00 0.00 0.00 48 4249.0
20260504194043 81 246 6.0 7.0 0.00 0.00 0.00 42 4249.3
20260504193039 81 322 2.0 3.0 0.00 0.00 0.00 44 4249.0
20260504192035 82 1 3.0 5.0 0.00 0.00 0.00 44 4249.2
20260504191034 81 342 2.0 2.0 0.00 0.00 0.00 46 4249.5
20260504190032 81 270 3.0 3.0 0.00 0.00 0.00 45 4249.7
20260504185032 82 264 5.0 6.0 0.00 0.00 0.00 44 4249.7
20260504184028 80 282 3.0 5.0 0.00 0.00 0.00 46 4249.6
20260504183024 80 272 2.0 2.0 0.00 0.00 0.00 47 4249.6
20260504182024 79 275 3.0 3.0 0.00 0.00 0.00 50 4249.7
20260504181019 79 255 3.0 3.0 0.00 0.00 0.00 48 4250.0
20260504180016 78 214 3.0 3.0 0.00 0.00 0.00 48 4250.2
20260504175016 79 252 4.0 5.0 0.00 0.00 0.00 47 4250.1
20260504174016 79 254 4.0 5.0 0.00 0.00 0.00 51 4250.1
20260504173016 78 158 4.0 6.0 0.00 0.00 0.00 50 4250.4
20260504172014 78 267 3.0 5.0 0.00 0.00 0.00 49 4250.7
20260504171014 78 23 1.0 2.0 0.00 0.00 0.00 52 4250.7
20260504150952 73 238 2.0 2.0 0.00 0.00 0.00 58 4251.8
20260504140950 68 248 1.0 3.0 0.00 0.00 0.00 64 4252.3
20260504081840 57 250 1.0 2.0 0.00 0.00 0.00 73 4251.2
20260504080838 57 241 2.0 3.0 0.00 0.00 0.00 73 4251.1
20260504045808 57 214 1.0 1.0 0.00 0.00 0.00 72 4253.0
20260504044805 57 189 1.0 2.0 0.00 0.00 0.00 73 4252.9
20260504043800 57 209 0.0 0.0 0.00 0.00 0.00 72 4253.2
20260504042755 57 224 2.0 2.0 0.00 0.00 0.00 73 4252.9
20260504041753 57 229 2.0 2.0 0.00 0.00 0.00 73 4253.3
20260504040751 56 225 2.0 2.0 0.00 0.00 0.00 75 4253.3
20260504035750 56 230 1.0 1.0 0.00 0.00 0.00 75 4253.4
20260504034745 56 213 0.0 1.0 0.00 0.00 0.00 75 4253.4
20260504033745 56 211 2.0 2.0 0.00 0.00 0.00 76 4253.3
20260504032745 56 173 0.0 0.0 0.00 0.00 0.00 76 4253.3
20260504031745 56 226 2.0 2.0 0.00 0.00 0.00 76 4253.6
20260504030744 55 209 1.0 1.0 0.00 0.00 0.00 80 4253.6
20260504025744 56 193 0.0 0.0 0.00 0.00 0.00 78 4253.6
20260504024744 56 192 0.0 0.0 0.00 0.00 0.00 77 4253.7
20260504023743 57 194 0.0 0.0 0.00 0.00 0.00 76 4253.5
20260504022741 57 194 0.0 0.0 0.00 0.00 0.00 74 4253.6
20260504021740 58 195 0.0 0.0 0.00 0.00 0.00 73 4253.5
20260504020740 58 195 0.0 1.0 0.00 0.00 0.00 73 4253.4
20260504015739 59 183 0.0 0.0 0.00 0.00 0.00 70 4253.5
20260504014737 60 195 1.0 1.0 0.00 0.00 0.00 68 4253.3
20260504013737 60 204 1.0 2.0 0.00 0.00 0.00 67 4253.0
20260504012737 60 200 1.0 1.0 0.00 0.00 0.00 66 4252.8
20260504011737 61 193 0.0 0.0 0.00 0.00 0.00 63 4252.9
20260504010736 62 249 0.0 1.0 0.00 0.00 0.00 61 4252.9
20260504005735 62 264 0.0 1.0 0.00 0.00 0.00 61 4252.8
20260504004735 63 243 1.0 1.0 0.00 0.00 0.00 59 4252.8
20260504003735 64 250 0.0 1.0 0.00 0.00 0.00 59 4252.7
20260504002734 64 254 0.0 0.0 0.00 0.00 0.00 56 4252.8
20260504001729 66 265 0.0 0.0 0.00 0.00 0.00 54 4252.6
20260504000728 66 256 1.0 1.0 0.00 0.00 0.00 52 4253.0
20260503235723 67 251 0.0 0.0 0.00 0.00 0.00 49 4253.0
20260503234723 68 264 0.0 0.0 0.00 0.00 0.00 48 4253.1
20260503233724 68 257 1.0 1.0 0.00 0.00 0.00 46 4253.3
20260503232722 69 230 3.0 3.0 0.00 0.00 0.00 44 4253.3
20260503231718 69 253 2.0 2.0 0.00 0.00 0.00 45 4253.3
20260503230716 70 271 1.0 1.0 0.00 0.00 0.00 44 4253.3
20260503225711 70 337 1.0 2.0 0.00 0.00 0.00 44 4253.4
20260503224709 70 275 2.0 2.0 0.00 0.00 0.00 42 4253.5
20260503223704 71 246 1.0 1.0 0.00 0.00 0.00 40 4253.6
20260503222703 72 315 1.0 1.0 0.00 0.00 0.00 41 4253.6
20260503221659 71 288 3.0 3.0 0.00 0.00 0.00 44 4253.7
20260503220659 72 347 0.0 0.0 0.00 0.00 0.00 39 4253.9
20260503215658 72 276 3.0 3.0 0.00 0.00 0.00 40 4253.8
20260503214654 69 5 1.0 1.0 0.00 0.00 0.00 42 4254.1
20260503213649 71 305 2.0 2.0 0.00 0.00 0.00 43 4254.1
20260503212648 71 21 1.0 2.0 0.00 0.00 0.00 43 4254.1
20260503211643 69 315 2.0 2.0 0.00 0.00 0.00 42 4254.1